#timestamp,LO_Frequency,Hit,StdDev 
1542754815.8,286046990.9,N
1542754835.6,286046989.5,N
1542754855.4,286046987.4,N
1542754905.3,286046991.4,E
1542754915.2,286046996.0,N
1542754935.1,286047001.9,P
1542754936.0,286047001.9,N
1542754955.8,286047004.2,N
1542754975.6,286047002.6,N
1542754995.5,286046999.8,N
1542755015.3,286047000.3,N
1542755035.1,286046998.4,N
1542755055.9,286046999.4,N
1542755075.7,286046996.7,N
1542755095.6,286046995.1,N
1542755115.4,286046996.4,N
1542755135.2,286046995.9,N
1542755155.1,286046996.0,N
1542755156.0,286046996.0,N
1542755175.8,286046993.8,N
1542755195.6,286046996.0,N
1542755215.5,286046994.3,N
1542755235.3,286046994.0,N
1542755255.2,286046993.3,N
1542755275.9,286046995.8,N
1542755295.7,286046995.7,N
1542755315.6,286046997.1,N
1542755335.4,286046997.4,N
1542755355.2,286046998.0,N
1542755375.1,286046993.8,N
1542755376.0,286046993.8,N
1542755395.8,286046995.7,N
1542755415.7,286046994.5,N
1542755435.5,286046992.6,N
1542755455.3,286046992.0,N
1542755475.2,286046994.4,N
1542755495.9,286046994.8,N
1542755545.8,286046997.8,E
1542755555.7,286046999.4,N
1542755575.5,286047001.9,P
1542755595.4,286047002.2,N
1542755615.2,286047002.0,N
1542755635.0,286047010.8,Y
1542755635.9,286047010.8,P
1542755655.8,286047005.8,N
1542755675.6,286047003.3,N
1542755695.5,286047004.0,N
1542755715.3,286047001.0,N
1542755735.1,286047011.9,Y
1542755755.9,286046995.3,P
1542755775.7,286046994.9,N
1542755795.5,286046992.4,N
1542755815.4,286046994.9,N
1542755835.2,286046995.5,N
1542755855.1,286046996.3,N
1542755856.0,286046996.3,N
1542755875.8,286046992.7,N
1542755895.6,286046992.7,N
1542755915.5,286046992.2,N
1542755935.3,286046990.5,N
1542755955.1,286046993.9,N
1542755975.9,286046994.5,N
1542755995.7,286046997.7,N
1542756015.6,286046994.0,N
1542756035.4,286046994.6,N
1542756055.2,286046991.5,N
1542756075.1,286046991.6,N
1542756076.0,286046991.6,N
1542756095.8,286046987.9,Y
1542756115.7,286046991.0,P
1542756135.5,286046991.3,P
1542756155.3,286046991.6,P
1542756175.2,286046989.1,Y
1542756195.0,286046996.4,P
1542756195.9,286046996.4,N
1542756215.8,286046994.3,N
1542756235.6,286046993.7,Y
1542756255.4,286046999.2,P
1542756275.3,286046997.8,N
1542756295.1,286046999.6,N
1542756315.9,286046998.8,N
1542756335.7,286047001.2,N
1542756355.5,286046998.1,N
1542756375.4,286046998.5,N
1542756395.2,286047000.3,N
1542756415.0,286046999.7,N
1542756415.9,286046999.7,N
1542756435.8,286046998.1,N
1542756455.6,286046997.7,N
1542756475.5,286046998.8,N
1542756495.3,286046996.6,N
1542756515.1,286046996.7,N
1542756535.9,286046997.6,N
1542756555.7,286046997.3,N
1542756575.5,286046998.5,N
1542756595.4,286046999.2,N
1542756615.2,286046999.0,N
1542756635.0,286046999.0,N
1542756636.0,286046999.0,N
1542756655.8,286047000.9,N
1542756675.6,286046998.5,N
1542756695.5,286046999.2,N
1542756715.3,286046997.6,N
1542756735.1,286046995.1,Y
1542756755.9,286046998.8,P
1542756775.7,286046998.9,P
1542756795.5,286046999.1,P
1542756815.4,286046997.3,Y
1542756835.2,286046997.5,P
1542756855.1,286046995.9,P
1542756856.0,286046995.9,P
1542756875.8,286046995.5,Y
1542756895.6,286046998.3,P
1542756915.5,286047000.8,N
1542756935.3,286046999.7,N
1542756955.1,286047003.9,N
1542756975.9,286047004.4,N
1542756995.7,286047004.1,N
1542757015.6,286047003.2,N
1542757035.4,286047004.4,N
1542757055.2,286047006.0,N
1542757075.1,286047003.5,N
1542757076.0,286047003.5,N
1542757095.8,286047003.2,N
1542757115.6,286047002.0,N
1542757135.5,286047005.6,N
1542757155.3,286047004.8,N
1542757175.2,286047005.1,N
1542757195.9,286047005.2,N
1542757215.7,286047004.9,N
1542757235.6,286047005.4,N
1542757255.4,286047007.1,N
1542757275.2,286047004.8,N
1542757295.1,286047004.6,N
1542757296.0,286047004.6,N
1542757315.8,286047005.7,N
1542757335.7,286047010.4,Y
1542757355.5,286047005.8,P
1542757375.3,286047005.7,P
1542757395.2,286047007.3,P
1542757415.0,286047003.2,N
1542757415.9,286047003.2,N
1542757435.7,286047001.7,N
1542757455.6,286047000.0,N
1542757475.4,286047000.9,N
1542757495.3,286047004.3,N
1542757515.1,286047002.1,N
1542757516.0,286047002.1,N
1542757535.8,286047000.0,N
1542757555.7,286047004.4,N
1542757575.5,286047001.8,N
1542757595.3,286047001.7,N
1542757615.2,286047000.2,N
1542757635.0,286046998.3,N
1542757635.9,286046998.3,N
1542757655.8,286046996.6,N
1542757675.6,286046998.4,N
1542757695.4,286046997.2,N
1542757715.3,286046997.9,N
1542757735.1,286046995.9,N
1542757736.0,286046995.9,N
1542757755.8,286047000.6,N
1542757775.7,286046997.3,N
1542757795.5,286046997.7,N
1542757815.3,286046997.2,N
1542757835.2,286046995.0,N
1542757855.0,286046996.6,N
1542757855.9,286046996.6,N
1542757875.8,286047001.2,N
1542757895.6,286046998.1,N
1542757915.4,286046999.9,N
1542757935.3,286047001.5,N
1542757955.1,286047003.6,N
1542757975.8,286047003.5,N
1542757995.7,286047003.1,N
1542758015.5,286047004.6,N
1542758035.4,286047005.3,N
1542758055.2,286047003.1,N
1542758075.0,286047005.2,N
1542758075.9,286047005.2,N
1542758095.8,286047002.1,N
1542758115.6,286047000.8,N
1542758135.4,286046998.4,N
1542758155.3,286046999.4,N
1542758175.1,286047005.9,N
1542758195.9,286047005.4,N
1542758215.7,286047004.9,N
1542758235.5,286047003.6,N
1542758255.4,286047003.9,N
1542758275.2,286047000.1,N
1542758295.0,286047000.2,N
1542758295.9,286047000.2,N
1542758315.8,286046999.0,N
1542758335.6,286046997.0,N
1542758355.4,286046996.6,N
1542758375.3,286046997.7,N
1542758395.1,286046997.9,N
